Date String (YYYY-MM-DD hh:mm:ss) UTC,Instrument flags,Ambient pressure (hPa),Sample flow (lpm),Bypass flow (lpm),Sample temperature (°C),Ambient temperature (°C),ASC tube jacket temperature (°C),LED temperature (°C),Box temperature (°C),Sample RH (%),Span deviation,Mass concentration (μg/m³),Mass concentration (μg/m³),Mass concentration (μg/m³)
DateTimeUTC,F1_M11,P_M11,Q1_M11,Q2_M11,T1_M11,T2_M11,T3_M11,T4_M11,T5_M11,U1_M11,ZSPAN_M11,X0_M11,X2_M11,X1_M11
2022-06-25 22:00:00,,0834.3,4.99,0.00,29.7,28.0,00.0,38.5,31.5,23.2,0000.0,0008.03,0003.89,0003.49
2022-06-25 22:01:00,,0834.3,5.00,0.00,29.7,28.2,00.0,38.5,31.6,23.2,0000.0,0008.00,0003.91,0003.51
2022-06-25 22:02:00,,0834.4,5.01,0.00,29.7,28.3,00.0,38.5,31.6,23.2,0000.0,0007.95,0003.93,0003.53
2022-06-25 22:03:00,,0834.4,5.00,0.00,29.7,28.5,00.0,38.5,31.7,23.2,0000.0,0007.91,0003.94,0003.54
2022-06-25 22:04:00,,0834.4,5.00,0.00,29.8,28.6,00.0,38.5,31.7,23.3,0000.0,0007.55,0003.96,0003.56
2022-06-25 22:05:00,,0834.4,5.01,0.00,29.8,28.7,00.0,38.6,31.7,23.1,0000.0,0007.32,0003.94,0003.57
2022-06-25 22:06:00,,0834.4,5.00,0.00,29.8,28.8,00.0,38.6,31.8,23.1,0000.0,0007.50,0003.94,0003.59
2022-06-25 22:07:00,,0834.4,5.00,0.00,29.8,28.9,00.0,38.6,31.8,23.2,0000.0,0007.58,0003.96,0003.60
2022-06-25 22:08:00,,0834.3,4.99,0.00,29.9,29.0,00.0,38.6,31.9,23.1,0000.0,0008.10,0003.97,0003.61
2022-06-25 22:09:00,,0834.3,5.00,0.00,29.9,29.1,00.0,38.6,31.9,23.0,0000.0,0009.21,0004.00,0003.62
2022-06-25 22:10:00,,0834.3,5.00,0.00,29.9,28.7,00.0,38.6,31.8,23.0,0000.0,0009.19,0004.00,0003.63
2022-06-25 22:11:00,,0834.3,5.00,0.00,29.9,28.0,00.0,38.6,31.6,23.1,0000.0,0009.27,0004.05,0003.64
2022-06-25 22:12:00,,0834.3,4.99,0.00,29.8,27.8,00.0,38.5,31.5,23.2,0000.0,0009.43,0004.07,0003.65
2022-06-25 22:13:00,,0834.3,4.99,0.00,29.8,27.8,00.0,38.5,31.5,23.3,0000.0,0009.72,0004.11,0003.66
2022-06-25 22:14:00,,0834.3,5.00,0.00,29.7,27.9,00.0,38.5,31.5,23.4,0000.0,0010.24,0004.14,0003.66
2022-06-25 22:15:00,,0834.3,4.99,0.00,29.7,28.0,00.0,38.5,31.5,23.5,0000.0,0010.39,0004.16,0003.68
2022-06-25 22:16:00,,0834.3,5.00,0.00,29.7,28.2,00.0,38.5,31.6,23.6,0000.0,0010.08,0004.18,0003.68
2022-06-25 22:17:00,,0834.3,5.01,0.00,29.7,28.3,00.0,38.5,31.6,23.8,0000.0,0010.28,0004.21,0003.69
2022-06-25 22:18:00,,0834.3,5.00,0.00,29.8,28.5,00.0,38.5,31.7,23.6,0000.0,0010.37,0004.23,0003.70
2022-06-25 22:19:00,,0834.3,4.99,0.00,29.8,28.6,00.0,38.5,31.7,23.6,0000.0,0010.16,0004.29,0003.71
2022-06-25 22:20:00,,0834.3,4.99,0.00,29.8,28.7,00.0,38.6,31.8,23.8,0000.0,0009.09,0004.31,0003.72
2022-06-25 22:21:00,,0834.3,4.99,0.00,29.8,28.8,00.0,38.6,31.8,23.6,0000.0,0009.24,0004.35,0003.73
2022-06-25 22:22:00,,0834.2,5.00,0.00,29.8,28.9,00.0,38.6,31.8,23.7,0000.0,0009.24,0004.34,0003.73
2022-06-25 22:23:00,,0834.2,5.01,0.00,29.9,29.0,00.0,38.6,31.9,23.9,0000.0,0009.15,0004.35,0003.73
2022-06-25 22:24:00,,0834.1,5.00,0.00,29.9,28.9,00.0,38.6,31.8,23.5,0000.0,0008.81,0004.31,0003.73
2022-06-25 22:25:00,,0834.0,4.99,0.00,29.9,28.1,00.0,38.5,31.6,23.7,0000.0,0008.48,0004.33,0003.73
2022-06-25 22:26:00,,0834.1,4.99,0.00,29.7,27.3,00.0,38.5,31.4,24.7,0000.0,0008.95,0004.36,0003.73
2022-06-25 22:27:00,,0834.1,5.00,0.00,29.7,27.1,00.0,38.4,31.3,24.4,0000.0,0009.23,0004.36,0003.73
2022-06-25 22:28:00,,0834.0,5.01,0.00,29.6,27.1,00.0,38.4,31.2,24.0,0000.0,0008.80,0004.35,0003.73
2022-06-25 22:29:00,,0834.0,5.00,0.00,29.5,27.3,00.0,38.4,31.2,24.2,0000.0,0008.74,0004.36,0003.74
2022-06-25 22:30:00,,0834.0,5.00,0.00,29.5,27.4,00.0,38.4,31.3,24.2,0000.0,0008.61,0004.33,0003.73
2022-06-25 22:31:00,,0834.0,4.98,0.00,29.5,27.6,00.0,38.4,31.3,24.5,0000.0,0008.78,0004.32,0003.71
2022-06-25 22:32:00,,0833.8,5.00,0.00,29.5,27.8,00.0,38.4,31.4,24.8,0000.0,0009.06,0004.32,0003.69
2022-06-25 22:33:00,,0833.9,5.00,0.00,29.5,28.0,00.0,38.4,31.4,24.8,0000.0,0009.04,0004.30,0003.68
2022-06-25 22:34:00,,0833.9,5.00,0.00,29.5,28.1,00.0,38.4,31.4,24.8,0000.0,0009.01,0004.28,0003.67
2022-06-25 22:35:00,,0833.8,5.00,0.00,29.5,28.3,00.0,38.4,31.5,24.3,0000.0,0008.97,0004.25,0003.65
2022-06-25 22:36:00,,0833.8,5.00,0.00,29.6,28.4,00.0,38.4,31.5,23.8,0000.0,0008.78,0004.20,0003.63
2022-06-25 22:37:00,,0833.8,4.99,0.00,29.6,28.5,00.0,38.4,31.5,24.2,0000.0,0008.24,0004.20,0003.62
2022-06-25 22:38:00,,0833.9,5.00,0.00,29.6,28.6,00.0,38.4,31.6,24.4,0000.0,0008.05,0004.18,0003.61
2022-06-25 22:39:00,,0833.9,5.00,0.00,29.6,28.7,00.0,38.4,31.6,24.9,0000.0,0008.78,0004.19,0003.60
2022-06-25 22:40:00,,0834.0,5.01,0.00,29.7,28.7,00.0,38.4,31.7,24.9,0000.0,0009.18,0004.23,0003.60
2022-06-25 22:41:00,,0834.0,5.00,0.00,29.7,28.8,00.0,38.4,31.7,24.5,0000.0,0009.24,0004.22,0003.61
2022-06-25 22:42:00,,0834.0,5.00,0.00,29.7,28.9,00.0,38.5,31.7,24.2,0000.0,0009.03,0004.22,0003.63
2022-06-25 22:43:00,,0834.1,5.00,0.00,29.8,28.9,00.0,38.5,31.8,24.1,0000.0,0008.67,0004.23,0003.63
2022-06-25 22:44:00,,0834.0,5.01,0.00,29.8,29.0,00.0,38.5,31.8,23.7,0000.0,0008.75,0004.23,0003.64
2022-06-25 22:45:00,,0834.0,5.01,0.00,29.8,29.0,00.0,38.5,31.8,23.6,0000.0,0008.93,0004.25,0003.66
2022-06-25 22:46:00,,0834.0,4.99,0.00,29.8,28.4,00.0,38.5,31.7,23.7,0000.0,0009.04,0004.29,0003.68
2022-06-25 22:47:00,,0834.0,4.99,0.00,29.7,27.5,00.0,38.4,31.4,23.7,0000.0,0009.25,0004.34,0003.70
2022-06-25 22:48:00,,0834.0,5.01,0.00,29.7,27.2,00.0,38.4,31.3,23.7,0000.0,0009.35,0004.34,0003.73
2022-06-25 22:49:00,,0834.0,5.01,0.00,29.6,27.2,00.0,38.4,31.2,23.9,0000.0,0009.35,0004.36,0003.75
2022-06-25 22:50:00,,0834.0,5.00,0.00,29.5,27.3,00.0,38.4,31.2,23.9,0000.0,0008.71,0004.39,0003.77
2022-06-25 22:51:00,,0834.0,4.99,0.00,29.5,27.4,00.0,38.3,31.2,24.0,0000.0,0008.35,0004.38,0003.78
2022-06-25 22:52:00,,0834.0,5.00,0.00,29.5,27.6,00.0,38.3,31.3,24.3,0000.0,0008.37,0004.38,0003.77
2022-06-25 22:53:00,,0834.0,5.00,0.00,29.5,27.8,00.0,38.3,31.3,24.3,0000.0,0008.29,0004.36,0003.76
2022-06-25 22:54:00,,0834.0,5.00,0.00,29.5,27.9,00.0,38.3,31.4,24.0,0000.0,0008.33,0004.34,0003.76
2022-06-25 22:55:00,,0834.0,5.01,0.00,29.5,28.1,00.0,38.3,31.4,24.0,0000.0,0008.35,0004.33,0003.77
2022-06-25 22:56:00,,0834.0,4.99,0.00,29.5,28.2,00.0,38.3,31.4,24.0,0000.0,0008.31,0004.35,0003.77
2022-06-25 22:57:00,,0834.0,5.00,0.00,29.5,28.4,00.0,38.3,31.5,23.9,0000.0,0008.46,0004.36,0003.77
2022-06-25 22:58:00,,0834.0,5.00,0.00,29.6,28.5,00.0,38.3,31.5,24.1,0000.0,0008.62,0004.37,0003.77
2022-06-25 22:59:00,,0834.0,5.01,0.00,29.6,28.6,00.0,38.4,31.6,24.0,0000.0,0008.43,0004.35,0003.76
